Regional Weather Roundup
Issued by NWS Memphis, TN

Home | Current Version | Previous Version | Text Only | Print | Product List | Glossary On
Versions: 1 2 3 4 5 6 7 8 9 10 11 12 13 14 15 16 17 18 19 20 21 22 23 24 25 26 27 28 29 30 31 32 33 34 35 36 37 38 39 40 41 42 43 44 45 46 47 48 49 50
000
ASUS44 KMEG 231200
RWRMEG
MEMPHIS CWA HOURLY WEATHER ROUNDUP
NATIONAL WEATHER SERVICE MEMPHIS TN
700 AM CDT WED JUL 23 2014

...WEST TENNESSEE...

CITY           SKY/WX    TMP DP  RH WIND       PRES   REMARKS
MEMPHIS INTL   MOSUNNY   76  70  82 CALM      30.06S
6HR MIN TEMP:  73; 6HR MAX TEMP:  80;

NWS MEMPHIS      N/A     72 N/A N/A MISG        N/A
JACKSON        FOG       72  70  93 CALM      30.06S VSB 1/4
6HR MIN TEMP:  69; 6HR MAX TEMP:  74;

DYERSBURG      SUNNY     72  63  73 S3        30.05F
6HR MIN TEMP:  70; 6HR MAX TEMP:  73;

PARIS          SUNNY     70  66  88 CALM      30.06F


...EASTERN ARKANSAS...

CITY           SKY/WX    TMP DP  RH WIND       PRES   REMARKS
JONESBORO      CLEAR     72  68  87 CALM      30.04F
6HR MIN TEMP:  69; 6HR MAX TEMP:  73;

WEST MEMPHIS   CLEAR     72  72 100 S3        30.05R FOG
6HR MIN TEMP:  70; 6HR MAX TEMP:  73;

BATESVILLE     PTCLDY    72  70  94 CALM      30.06R
6HR MIN TEMP:  72; 6HR MAX TEMP:  73;

WALNUT RIDGE   PTCLDY    73  57  56 S3        30.05R
6HR MIN TEMP:  72; 6HR MAX TEMP:  73;

BLYTHEVILLE    SUNNY     73  71  93 SW3       30.05S
6HR MIN TEMP:  71; 6HR MAX TEMP:  76;

STUTTGART      CLEAR     72  68  88 CALM      30.08R
6HR MIN TEMP:  70; 6HR MAX TEMP:  75;

PINE BLUFF     CLEAR     70  68  93 CALM      30.07S FOG
6HR MIN TEMP:  69; 6HR MAX TEMP:  73;

MONTICELLO     CLEAR     70  68  93 CALM      30.07R
6HR MIN TEMP:  69; 6HR MAX TEMP:  73;



...NORTH MISSISSIPPI...

CITY           SKY/WX    TMP DP  RH WIND       PRES   REMARKS
TUPELO         MOSUNNY   74  72  93 CALM      30.08R
6HR MIN TEMP:  73; 6HR MAX TEMP:  75;

CLARKSDALE     CLEAR     72  72 100 CALM      30.07S
GREENWOOD      PTCLDY    72  71  97 CALM      30.06S FOG
6HR MIN TEMP:  70; 6HR MAX TEMP:  73;

COLUMBUS       PTSUNNY   73  73 100 CALM      30.08R
STARKVILLE     FAIR      72  70  94 CALM      30.08R FOG
GOLDEN TRIANGL PTSUNNY   73  70  88 CALM      30.09R


...SOUTHEAST MISSOURI...

CITY           SKY/WX    TMP DP  RH WIND       PRES   REMARKS
WEST PLAINS    CLEAR     73  69  87 W3        30.08F
6HR MIN TEMP:  72; 6HR MAX TEMP:  76;

POPLAR BLUFF   MOSUNNY   73  69  87 CALM      30.03S FOG
6HR MIN TEMP:  71; 6HR MAX TEMP:  73;

CAPE GIRARDEAU MOSUNNY   74  70  87 CALM      30.03F FOG
6HR MIN TEMP:  68; 6HR MAX TEMP:  74;



...NORTHWEST ALABAMA...

CITY           SKY/WX    TMP DP  RH WIND       PRES   REMARKS
MUSCLE SHOALS  PTSUNNY   75  72  90 CALM      30.10R FOG
6HR MIN TEMP:  72; 6HR MAX TEMP:  75;



...MIDDLE TENNESSEE...

CITY           SKY/WX    TMP DP  RH WIND       PRES   REMARKS
NASHVILLE      MOSUNNY   74  73  97 S3        30.08R
6HR MIN TEMP:  72; 6HR MAX TEMP:  77;

CLARKSVILLE    SUNNY     73  71  93 CALM      30.06S FOG
6HR MIN TEMP:  70; 6HR MAX TEMP:  78;



...WESTERN KENTUCKY...

CITY           SKY/WX    TMP DP  RH WIND       PRES   REMARKS
PADUCAH        MOSUNNY   74  69  85 SW5       30.02F HAZE
6HR MIN TEMP:  70; 6HR MAX TEMP:  78;

FORT CAMPBELL  SUNNY     74  74 100 S5        30.06S
6HR MIN TEMP:  73; 6HR MAX TEMP:  76;



...CENTRAL ARKANSAS...

CITY           SKY/WX    TMP DP  RH WIND       PRES   REMARKS
LITTLE ROCK    PTCLDY    71  68  90 CALM      30.06F FOG
6HR MIN TEMP:  70; 6HR MAX TEMP:  75;



SKY/WX REPORTED AS FAIR MEANS FEW OR NO CLOUDS BELOW
12 THOUSAND FEET.



USA.gov is the U.S. government's official web portal to all federal, state and local government web resources and services.